Location: Dalton
(34.7700°N, 84.9700°W)
Time: 04:01:26
(UTC-04:00)

Tiangong 1 - Pass Details

Date: 09 October 2017
Orbit: 292 x 320 km, 42.8° (Epoch: 22 October)

Event Time Altitude Azimuth Distance (km) Brightness Sun altitude
Rises 20:42:42 0° 297° (WNW) 2,033 6.0 -19.3°
Reaches altitude 10° 20:45:16 10° 324° (NW) 1,196 4.1 -19.8°
Enters shadow 20:46:22 14° 348° (NNW) 999 3.3 -20.1°
